Year,Month,Day,Hour,Minute,Value (Times are PST for windgust in km/hr)
2012,03,12,00,00,30.60
2012,03,12,00,01,35.40
2012,03,12,00,02,41.80
2012,03,12,00,03,27.40
2012,03,12,00,04,37.00
2012,03,12,00,05,27.40
2012,03,12,00,06,32.20
2012,03,12,00,07,41.80
2012,03,12,00,08,27.40
2012,03,12,00,09,35.40
2012,03,12,00,10,30.60
2012,03,12,00,11,30.60
2012,03,12,00,12,30.60
2012,03,12,00,13,29.00
2012,03,12,00,14,29.00
2012,03,12,00,15,25.70
2012,03,12,00,16,37.00
2012,03,12,00,17,41.80
2012,03,12,00,18,38.60
2012,03,12,00,19,40.20
2012,03,12,00,20,33.80
2012,03,12,00,21,37.00
2012,03,12,00,22,37.00
2012,03,12,00,23,35.40
2012,03,12,00,24,29.00
2012,03,12,00,25,33.80
2012,03,12,00,26,29.00
2012,03,12,00,27,29.00
2012,03,12,00,28,32.20
2012,03,12,00,29,32.20
2012,03,12,00,30,30.60
2012,03,12,00,31,32.20
2012,03,12,00,32,37.00
2012,03,12,00,33,30.60
2012,03,12,00,34,35.40
2012,03,12,00,35,37.00
2012,03,12,00,36,40.20
2012,03,12,00,37,29.00
2012,03,12,00,38,41.80
2012,03,12,00,39,37.00
2012,03,12,00,40,33.80
2012,03,12,00,41,35.40
2012,03,12,00,42,35.40
2012,03,12,00,43,35.40
2012,03,12,00,44,35.40
2012,03,12,00,45,35.40
2012,03,12,00,46,27.40
2012,03,12,00,47,33.80
2012,03,12,00,48,40.20
2012,03,12,00,49,29.00
2012,03,12,00,50,32.20
2012,03,12,00,51,41.80
2012,03,12,00,52,29.00
2012,03,12,00,53,35.40
2012,03,12,00,54,27.40
2012,03,12,00,55,33.80
2012,03,12,00,56,37.00
2012,03,12,00,57,33.80
2012,03,12,00,58,24.20
2012,03,12,00,59,30.60
2012,03,12,01,00,35.40
2012,03,12,01,01,38.60
2012,03,12,01,02,35.40
2012,03,12,01,03,37.00
2012,03,12,01,04,37.00
2012,03,12,01,05,29.00
2012,03,12,01,06,33.80
2012,03,12,01,07,35.40
2012,03,12,01,08,35.40
2012,03,12,01,09,37.00
2012,03,12,01,10,30.60
2012,03,12,01,11,40.20
2012,03,12,01,12,33.80
2012,03,12,01,13,35.40
2012,03,12,01,14,35.40
2012,03,12,01,15,30.60
2012,03,12,01,16,24.20
2012,03,12,01,17,30.60
2012,03,12,01,18,25.70
2012,03,12,01,19,20.90
2012,03,12,01,20,30.60
2012,03,12,01,21,27.40
2012,03,12,01,22,25.70
2012,03,12,01,23,33.80
2012,03,12,01,24,40.20
2012,03,12,01,25,25.70
2012,03,12,01,26,35.40
2012,03,12,01,27,40.20
2012,03,12,01,28,41.80
2012,03,12,01,29,32.20
2012,03,12,01,30,35.40
2012,03,12,01,31,29.00
2012,03,12,01,32,32.20
2012,03,12,01,33,37.00
2012,03,12,01,34,40.20
2012,03,12,01,35,25.70
2012,03,12,01,36,33.80
2012,03,12,01,37,38.60
2012,03,12,01,38,40.20
2012,03,12,01,39,29.00
2012,03,12,01,40,32.20
2012,03,12,01,41,33.80
2012,03,12,01,42,33.80
2012,03,12,01,43,37.00
2012,03,12,01,44,38.60
2012,03,12,01,45,38.60
2012,03,12,01,46,38.60
2012,03,12,01,47,33.80
2012,03,12,01,48,33.80
2012,03,12,01,49,32.20
2012,03,12,01,50,40.20
2012,03,12,01,51,40.20
2012,03,12,01,52,43.50
2012,03,12,01,53,33.80
2012,03,12,01,54,35.40
2012,03,12,01,55,37.00
2012,03,12,01,56,33.80
2012,03,12,01,57,25.70
2012,03,12,01,58,43.50
2012,03,12,01,59,43.50
2012,03,12,02,00,51.50
2012,03,12,02,01,43.50
2012,03,12,02,02,48.30
2012,03,12,02,03,37.00
2012,03,12,02,04,46.70
2012,03,12,02,05,40.20
2012,03,12,02,06,48.30
2012,03,12,02,07,40.20
2012,03,12,02,08,51.50
2012,03,12,02,09,45.10
2012,03,12,02,10,51.50
2012,03,12,02,11,46.70
2012,03,12,02,12,33.80
2012,03,12,02,13,41.80
2012,03,12,02,14,40.20
2012,03,12,02,15,38.60
2012,03,12,02,16,35.40
2012,03,12,02,17,33.80
2012,03,12,02,18,45.10
2012,03,12,02,19,43.50
2012,03,12,02,20,43.50
2012,03,12,02,21,54.70
2012,03,12,02,22,32.20
2012,03,12,02,23,37.00
2012,03,12,02,24,41.80
2012,03,12,02,25,40.20
2012,03,12,02,26,46.70
2012,03,12,02,27,37.00
2012,03,12,02,28,45.10
2012,03,12,02,29,38.60
2012,03,12,02,30,35.40
2012,03,12,02,31,49.90
2012,03,12,02,32,53.10
2012,03,12,02,33,46.70
2012,03,12,02,34,48.30
2012,03,12,02,35,53.10
2012,03,12,02,36,53.10
2012,03,12,02,37,48.30
2012,03,12,02,38,35.40
2012,03,12,02,39,51.50
2012,03,12,02,40,38.60
2012,03,12,02,41,43.50
2012,03,12,02,42,41.80
2012,03,12,02,43,43.50
2012,03,12,02,44,35.40
2012,03,12,02,45,38.60
2012,03,12,02,46,37.00
2012,03,12,02,47,38.60
2012,03,12,02,48,51.50
2012,03,12,02,49,43.50
2012,03,12,02,50,49.90
2012,03,12,02,51,43.50
2012,03,12,02,52,48.30
2012,03,12,02,53,48.30
2012,03,12,02,54,45.10
2012,03,12,02,55,30.60
2012,03,12,02,56,41.80
2012,03,12,02,57,41.80
2012,03,12,02,58,43.50
2012,03,12,02,59,40.20
2012,03,12,03,00,43.50
2012,03,12,03,01,41.80
2012,03,12,03,02,54.70
2012,03,12,03,03,49.90
2012,03,12,03,04,46.70
2012,03,12,03,05,48.30
2012,03,12,03,06,45.10
2012,03,12,03,07,43.50
2012,03,12,03,08,49.90
2012,03,12,03,09,49.90
2012,03,12,03,10,49.90
2012,03,12,03,11,49.90
2012,03,12,03,12,43.50
2012,03,12,03,13,53.10
2012,03,12,03,14,43.50
2012,03,12,03,15,38.60
2012,03,12,03,16,45.10
2012,03,12,03,17,46.70
2012,03,12,03,18,53.10
2012,03,12,03,19,40.20
2012,03,12,03,20,40.20
2012,03,12,03,21,43.50
2012,03,12,03,22,49.90
2012,03,12,03,23,49.90
2012,03,12,03,24,49.90
2012,03,12,03,25,57.90
2012,03,12,03,26,49.90
2012,03,12,03,27,51.50
2012,03,12,03,28,56.30
2012,03,12,03,29,51.50
2012,03,12,03,30,48.30
2012,03,12,03,31,48.30
2012,03,12,03,32,49.90
2012,03,12,03,33,49.90
2012,03,12,03,34,35.40
2012,03,12,03,35,38.60
2012,03,12,03,36,51.50
2012,03,12,03,37,48.30
2012,03,12,03,38,51.50
2012,03,12,03,39,49.90
2012,03,12,03,40,49.90
2012,03,12,03,41,46.70
2012,03,12,03,42,46.70
2012,03,12,03,43,41.80
2012,03,12,03,44,49.90
2012,03,12,03,45,53.10
2012,03,12,03,46,41.80
2012,03,12,03,47,41.80
2012,03,12,03,48,53.10
2012,03,12,03,49,53.10
2012,03,12,03,50,49.90
2012,03,12,03,51,40.20
2012,03,12,03,52,45.10
2012,03,12,03,53,53.10
2012,03,12,03,54,45.10
2012,03,12,03,55,38.60
2012,03,12,03,56,45.10
2012,03,12,03,57,41.80
2012,03,12,03,58,40.20
2012,03,12,03,59,51.50
2012,03,12,04,00,48.30
2012,03,12,04,01,46.70
2012,03,12,04,02,53.10
2012,03,12,04,03,53.10
2012,03,12,04,04,45.10
2012,03,12,04,05,54.70
2012,03,12,04,06,41.80
2012,03,12,04,07,35.40
2012,03,12,04,08,40.20
2012,03,12,04,09,45.10
2012,03,12,04,10,32.20
2012,03,12,04,11,33.80
2012,03,12,04,12,33.80
2012,03,12,04,13,43.50
2012,03,12,04,14,54.70
2012,03,12,04,15,48.30
2012,03,12,04,16,49.90
2012,03,12,04,17,46.70
2012,03,12,04,18,46.70
2012,03,12,04,19,46.70
2012,03,12,04,20,40.20
2012,03,12,04,21,30.60
2012,03,12,04,22,41.80
2012,03,12,04,23,41.80
2012,03,12,04,24,59.50
2012,03,12,04,25,33.80
2012,03,12,04,26,43.50
2012,03,12,04,27,41.80
2012,03,12,04,28,45.10
2012,03,12,04,29,45.10
2012,03,12,04,30,53.10
2012,03,12,04,31,53.10
2012,03,12,04,32,49.90
2012,03,12,04,33,43.50
2012,03,12,04,34,49.90
2012,03,12,04,35,40.20
2012,03,12,04,36,40.20
2012,03,12,04,37,51.50
2012,03,12,04,38,48.30
2012,03,12,04,39,46.70
2012,03,12,04,40,43.50
2012,03,12,04,41,53.10
2012,03,12,04,42,41.80
2012,03,12,04,43,46.70
2012,03,12,04,44,49.90
2012,03,12,04,45,53.10
2012,03,12,04,46,59.50
2012,03,12,04,47,53.10
2012,03,12,04,48,48.30
2012,03,12,04,49,45.10
2012,03,12,04,50,61.20
2012,03,12,04,51,56.30
2012,03,12,04,52,51.50
2012,03,12,04,53,45.10
2012,03,12,04,54,49.90
2012,03,12,04,55,41.80
2012,03,12,04,56,48.30
2012,03,12,04,57,62.70
2012,03,12,04,58,43.50
2012,03,12,04,59,43.50
2012,03,12,05,00,38.60
2012,03,12,05,01,49.90
2012,03,12,05,02,53.10
2012,03,12,05,03,53.10
2012,03,12,05,04,56.30
2012,03,12,05,05,64.40
2012,03,12,05,06,56.30
2012,03,12,05,07,46.70
2012,03,12,05,08,46.70
2012,03,12,05,09,54.70
2012,03,12,05,10,59.50
2012,03,12,05,11,64.40
2012,03,12,05,12,56.30
2012,03,12,05,13,53.10
2012,03,12,05,14,51.50
2012,03,12,05,15,40.20
2012,03,12,05,16,51.50
2012,03,12,05,17,51.50
2012,03,12,05,18,53.10
2012,03,12,05,19,57.90
2012,03,12,05,20,49.90
2012,03,12,05,21,57.90
2012,03,12,05,22,67.60
2012,03,12,05,23,66.00
2012,03,12,05,24,57.90
2012,03,12,05,25,53.10
2012,03,12,05,26,51.50
2012,03,12,05,27,43.50
2012,03,12,05,28,48.30
2012,03,12,05,29,51.50
2012,03,12,05,30,45.10
2012,03,12,05,31,54.70
2012,03,12,05,32,49.90
2012,03,12,05,33,54.70
2012,03,12,05,34,48.30
2012,03,12,05,35,59.50
2012,03,12,05,36,53.10
2012,03,12,05,37,56.30
2012,03,12,05,38,64.40
2012,03,12,05,39,53.10
2012,03,12,05,40,48.30
2012,03,12,05,41,51.50
2012,03,12,05,42,59.50
2012,03,12,05,43,62.70
2012,03,12,05,44,53.10
2012,03,12,05,45,51.50
2012,03,12,05,46,64.40
2012,03,12,05,47,48.30
2012,03,12,05,48,54.70
2012,03,12,05,49,54.70
2012,03,12,05,50,48.30
2012,03,12,05,51,59.50
2012,03,12,05,52,53.10
2012,03,12,05,53,45.10
2012,03,12,05,54,45.10
2012,03,12,05,55,49.90
2012,03,12,05,56,62.70
2012,03,12,05,57,57.90
2012,03,12,05,58,53.10
2012,03,12,05,59,61.20
2012,03,12,06,00,53.10
2012,03,12,06,01,48.30
2012,03,12,06,02,46.70
2012,03,12,06,03,41.80
2012,03,12,06,04,61.20
2012,03,12,06,05,56.30
2012,03,12,06,06,51.50
2012,03,12,06,07,59.50
2012,03,12,06,08,57.90
2012,03,12,06,09,54.70
2012,03,12,06,10,51.50
2012,03,12,06,11,53.10
2012,03,12,06,12,57.90
2012,03,12,06,13,53.10
2012,03,12,06,14,59.50
2012,03,12,06,15,59.50
2012,03,12,06,16,53.10
2012,03,12,06,17,45.10
2012,03,12,06,18,43.50
2012,03,12,06,19,45.10
2012,03,12,06,20,48.30
2012,03,12,06,21,56.30
2012,03,12,06,22,61.20
2012,03,12,06,23,59.50
2012,03,12,06,24,49.90
2012,03,12,06,25,64.40
2012,03,12,06,26,53.10
2012,03,12,06,27,64.40
2012,03,12,06,28,59.50
2012,03,12,06,29,59.50
2012,03,12,06,30,61.20
2012,03,12,06,31,51.50
2012,03,12,06,32,61.20
2012,03,12,06,33,66.00
2012,03,12,06,34,56.30
2012,03,12,06,35,54.70
2012,03,12,06,36,43.50
2012,03,12,06,37,54.70
2012,03,12,06,38,41.80
2012,03,12,06,39,49.90
2012,03,12,06,40,51.50
2012,03,12,06,41,61.20
2012,03,12,06,42,61.20
2012,03,12,06,43,66.00
2012,03,12,06,44,67.60
2012,03,12,06,45,61.20
2012,03,12,06,46,66.00
2012,03,12,06,47,57.90
2012,03,12,06,48,64.40
2012,03,12,06,49,56.30
2012,03,12,06,50,57.90
2012,03,12,06,51,62.70
2012,03,12,06,52,67.60
2012,03,12,06,53,66.00
2012,03,12,06,54,66.00
2012,03,12,06,55,61.20
2012,03,12,06,56,59.50
2012,03,12,06,57,56.30
2012,03,12,06,58,61.20
2012,03,12,06,59,64.40
2012,03,12,07,00,64.40
2012,03,12,07,01,62.70
2012,03,12,07,02,66.00
2012,03,12,07,03,70.80
2012,03,12,07,04,56.30
2012,03,12,07,05,64.40
2012,03,12,07,06,72.40
2012,03,12,07,07,67.60
2012,03,12,07,08,53.10
2012,03,12,07,09,62.70
2012,03,12,07,10,54.70
2012,03,12,07,11,56.30
2012,03,12,07,12,69.20
2012,03,12,07,13,59.50
2012,03,12,07,14,66.00
2012,03,12,07,15,62.70
2012,03,12,07,16,57.90
2012,03,12,07,17,62.70
2012,03,12,07,18,53.10
2012,03,12,07,19,64.40
2012,03,12,07,20,69.20
2012,03,12,07,21,59.50
2012,03,12,07,22,61.20
2012,03,12,07,23,61.20
2012,03,12,07,24,72.40
2012,03,12,07,25,64.40
2012,03,12,07,26,61.20
2012,03,12,07,27,59.50
2012,03,12,07,28,61.20
2012,03,12,07,29,62.70
2012,03,12,07,30,53.10
2012,03,12,07,31,66.00
2012,03,12,07,32,70.80
2012,03,12,07,33,64.40
2012,03,12,07,34,57.90
2012,03,12,07,35,62.70
2012,03,12,07,36,41.80
2012,03,12,07,37,69.20
2012,03,12,07,38,62.70
2012,03,12,07,39,67.60
2012,03,12,07,40,57.90
2012,03,12,07,41,49.90
2012,03,12,07,42,59.50
2012,03,12,07,43,56.30
2012,03,12,07,44,66.00
2012,03,12,07,45,66.00
2012,03,12,07,46,66.00
2012,03,12,07,47,57.90
2012,03,12,07,48,62.70
2012,03,12,07,49,62.70
2012,03,12,07,50,56.30
2012,03,12,07,51,67.60
2012,03,12,07,52,66.00
2012,03,12,07,53,62.70
2012,03,12,07,54,64.40
2012,03,12,07,55,67.60
2012,03,12,07,56,61.20
2012,03,12,07,57,56.30
2012,03,12,07,58,62.70
2012,03,12,07,59,64.40
2012,03,12,08,00,61.20
2012,03,12,08,01,74.00
2012,03,12,08,02,69.20
2012,03,12,08,03,48.30
2012,03,12,08,04,57.90
2012,03,12,08,05,66.00
2012,03,12,08,06,53.10
2012,03,12,08,07,62.70
2012,03,12,08,08,59.50
2012,03,12,08,09,67.60
2012,03,12,08,10,70.80
2012,03,12,08,11,59.50
2012,03,12,08,12,64.40
2012,03,12,08,13,53.10
2012,03,12,08,14,64.40
2012,03,12,08,15,66.00
2012,03,12,08,16,72.40
2012,03,12,08,17,53.10
2012,03,12,08,18,67.60
2012,03,12,08,19,59.50
2012,03,12,08,20,72.40
2012,03,12,08,21,75.60
2012,03,12,08,22,74.00
2012,03,12,08,23,61.20
2012,03,12,08,24,53.10
2012,03,12,08,25,56.30
2012,03,12,08,26,59.50
2012,03,12,08,27,77.30
2012,03,12,08,28,61.20
2012,03,12,08,29,69.20
2012,03,12,08,30,64.40
2012,03,12,08,31,51.50
2012,03,12,08,32,61.20
2012,03,12,08,33,75.60
2012,03,12,08,34,64.40
2012,03,12,08,35,54.70
2012,03,12,08,36,75.60
2012,03,12,08,37,61.20
2012,03,12,08,38,57.90
2012,03,12,08,39,72.40
2012,03,12,08,40,64.40
2012,03,12,08,41,64.40
2012,03,12,08,42,66.00
2012,03,12,08,43,64.40
2012,03,12,08,44,62.70
2012,03,12,08,45,67.60
2012,03,12,08,46,70.80
2012,03,12,08,47,66.00
2012,03,12,08,48,56.30
2012,03,12,08,49,70.80
2012,03,12,08,50,64.40
2012,03,12,08,51,67.60
2012,03,12,08,52,66.00
2012,03,12,08,53,62.70
2012,03,12,08,54,66.00
2012,03,12,08,55,64.40
2012,03,12,08,56,56.30
2012,03,12,08,57,61.20
2012,03,12,08,58,64.40
2012,03,12,08,59,64.40
2012,03,12,09,00,56.30
2012,03,12,09,01,64.40
2012,03,12,09,02,59.50
2012,03,12,09,03,66.00
2012,03,12,09,04,59.50
2012,03,12,09,05,70.80
2012,03,12,09,06,72.40
2012,03,12,09,07,64.40
2012,03,12,09,08,77.30
2012,03,12,09,09,64.40
2012,03,12,09,10,61.20
2012,03,12,09,11,54.70
2012,03,12,09,12,70.80
2012,03,12,09,13,62.70
2012,03,12,09,14,61.20
2012,03,12,09,15,62.70
2012,03,12,09,16,67.60
2012,03,12,09,17,48.30
2012,03,12,09,18,59.50
2012,03,12,09,19,56.30
2012,03,12,09,20,57.90
2012,03,12,09,21,61.20
2012,03,12,09,22,66.00
2012,03,12,09,23,56.30
2012,03,12,09,24,64.40
2012,03,12,09,25,53.10
2012,03,12,09,26,64.40
2012,03,12,09,27,64.40
2012,03,12,09,28,59.50
2012,03,12,09,29,54.70
2012,03,12,09,30,67.60
2012,03,12,09,31,66.00
2012,03,12,09,32,59.50
2012,03,12,09,33,59.50
2012,03,12,09,34,56.30
2012,03,12,09,35,56.30
2012,03,12,09,36,59.50
2012,03,12,09,37,61.20
2012,03,12,09,38,61.20
2012,03,12,09,39,62.70
2012,03,12,09,40,56.30
2012,03,12,09,41,53.10
2012,03,12,09,42,61.20
2012,03,12,09,43,70.80
2012,03,12,09,44,61.20
2012,03,12,09,45,51.50
2012,03,12,09,46,56.30
2012,03,12,09,47,49.90
2012,03,12,09,48,59.50
2012,03,12,09,49,53.10
2012,03,12,09,50,51.50
2012,03,12,09,51,69.20
2012,03,12,09,52,61.20
2012,03,12,09,53,49.90
2012,03,12,09,54,54.70
2012,03,12,09,55,64.40
2012,03,12,09,56,64.40
2012,03,12,09,57,49.90
2012,03,12,09,58,61.20
2012,03,12,09,59,56.30
2012,03,12,10,00,56.30
2012,03,12,10,01,57.90
2012,03,12,10,02,56.30
2012,03,12,10,03,48.30
2012,03,12,10,04,53.10
2012,03,12,10,05,46.70
2012,03,12,10,06,43.50
2012,03,12,10,07,46.70
2012,03,12,10,08,49.90
2012,03,12,10,09,51.50
2012,03,12,10,10,49.90
2012,03,12,10,11,57.90
2012,03,12,10,12,54.70
2012,03,12,10,13,54.70
2012,03,12,10,14,53.10
2012,03,12,10,15,46.70
2012,03,12,10,16,45.10
2012,03,12,10,17,61.20
2012,03,12,10,18,40.20
2012,03,12,10,19,40.20
2012,03,12,10,20,43.50
2012,03,12,10,21,41.80
2012,03,12,10,22,38.60
2012,03,12,10,23,46.70
2012,03,12,10,24,51.50
2012,03,12,10,25,46.70
2012,03,12,10,26,41.80
2012,03,12,10,27,45.10
2012,03,12,10,28,33.80
2012,03,12,10,29,41.80
2012,03,12,10,30,45.10
2012,03,12,10,31,41.80
2012,03,12,10,32,46.70
2012,03,12,10,33,45.10
2012,03,12,10,34,41.80
2012,03,12,10,35,46.70
2012,03,12,10,36,41.80
2012,03,12,10,37,53.10
2012,03,12,10,38,49.90
2012,03,12,10,39,41.80
2012,03,12,10,40,46.70
2012,03,12,10,41,45.10
2012,03,12,10,42,41.80
2012,03,12,10,43,40.20
2012,03,12,10,44,46.70
2012,03,12,10,45,53.10
2012,03,12,10,46,43.50
2012,03,12,10,47,33.80
2012,03,12,10,48,29.00
2012,03,12,10,49,29.00
2012,03,12,10,50,37.00
2012,03,12,10,51,46.70
2012,03,12,10,52,40.20
2012,03,12,10,53,41.80
2012,03,12,10,54,29.00
2012,03,12,10,55,37.00
2012,03,12,10,56,32.20
2012,03,12,10,57,45.10
2012,03,12,10,58,35.40
2012,03,12,10,59,38.60
2012,03,12,11,00,35.40
2012,03,12,11,01,29.00
2012,03,12,11,02,38.60
2012,03,12,11,03,38.60
2012,03,12,11,04,37.00
2012,03,12,11,05,27.40
2012,03,12,11,06,37.00
2012,03,12,11,07,29.00
2012,03,12,11,08,40.20
2012,03,12,11,09,33.80
2012,03,12,11,10,32.20
2012,03,12,11,11,29.00
2012,03,12,11,12,41.80
2012,03,12,11,13,43.50
2012,03,12,11,14,35.40
2012,03,12,11,15,43.50
2012,03,12,11,16,41.80
2012,03,12,11,17,35.40
2012,03,12,11,18,32.20
2012,03,12,11,19,30.60
2012,03,12,11,20,49.90
2012,03,12,11,21,35.40
2012,03,12,11,22,27.40
2012,03,12,11,23,35.40
2012,03,12,11,24,33.80
2012,03,12,11,25,29.00
2012,03,12,11,26,38.60
2012,03,12,11,27,32.20
2012,03,12,11,28,30.60
2012,03,12,11,29,27.40
2012,03,12,11,30,29.00
2012,03,12,11,31,32.20
2012,03,12,11,32,33.80
2012,03,12,11,33,29.00
2012,03,12,11,34,33.80
2012,03,12,11,35,30.60
2012,03,12,11,36,25.70
2012,03,12,11,37,27.40
2012,03,12,11,38,30.60
2012,03,12,11,39,25.70
2012,03,12,11,40,22.50
2012,03,12,11,41,35.40
2012,03,12,11,42,25.70
2012,03,12,11,43,30.60
2012,03,12,11,44,27.40
2012,03,12,11,45,25.70
2012,03,12,11,46,19.30
2012,03,12,11,47,22.50
2012,03,12,11,48,19.30
2012,03,12,11,49,30.60
2012,03,12,11,50,33.80
2012,03,12,11,51,25.70
2012,03,12,11,52,30.60
2012,03,12,11,53,20.90
2012,03,12,11,54,25.70
2012,03,12,11,55,17.70
2012,03,12,11,56,25.70
2012,03,12,11,57,24.20
2012,03,12,11,58,17.70
2012,03,12,11,59,27.40
2012,03,12,12,00,25.70
2012,03,12,12,01,24.20
2012,03,12,12,02,20.90
2012,03,12,12,03,25.70
2012,03,12,12,04,24.20
2012,03,12,12,05,24.20
2012,03,12,12,06,24.20
2012,03,12,12,07,22.50
2012,03,12,12,08,25.70
2012,03,12,12,09,17.70
2012,03,12,12,10,24.20
2012,03,12,12,11,22.50
2012,03,12,12,12,24.20
2012,03,12,12,13,22.50
2012,03,12,12,14,19.30
2012,03,12,12,15,19.30
2012,03,12,12,16,22.50
2012,03,12,12,17,24.20
2012,03,12,12,18,16.10
2012,03,12,12,19,12.90
2012,03,12,12,20,17.70
2012,03,12,12,21,19.30
2012,03,12,12,22,20.90
2012,03,12,12,23,16.10
2012,03,12,12,24,12.90
2012,03,12,12,25,11.30
2012,03,12,12,26,12.90
2012,03,12,12,27,20.90
2012,03,12,12,28,19.30
2012,03,12,12,29,17.70
2012,03,12,12,30,16.10
2012,03,12,12,31,20.90
2012,03,12,12,32,17.70
2012,03,12,12,33,16.10
2012,03,12,12,34,16.10
2012,03,12,12,35,11.30
2012,03,12,12,36,17.70
2012,03,12,12,37,14.50
2012,03,12,12,38,11.30
2012,03,12,12,39,11.30
2012,03,12,12,40,11.30
2012,03,12,12,41,14.50
2012,03,12,12,42,11.30
2012,03,12,12,43,14.50
2012,03,12,12,44,14.50
2012,03,12,12,45,9.60
2012,03,12,12,46,8.10
2012,03,12,12,47,9.60
2012,03,12,12,48,6.40
2012,03,12,12,49,8.10
2012,03,12,12,50,11.30
2012,03,12,12,51,8.10
2012,03,12,12,52,9.60
2012,03,12,12,53,6.40
2012,03,12,12,54,9.60
2012,03,12,12,55,6.40
2012,03,12,12,56,9.60
2012,03,12,12,57,9.60
2012,03,12,12,58,6.40
2012,03,12,12,59,8.10
2012,03,12,13,00,8.10
2012,03,12,13,01,4.80
2012,03,12,13,02,4.80
2012,03,12,13,03,4.80
2012,03,12,13,04,4.80
2012,03,12,13,05,11.30
2012,03,12,13,06,8.10
2012,03,12,13,07,9.60
2012,03,12,13,08,16.10
2012,03,12,13,09,11.30
2012,03,12,13,10,9.60
2012,03,12,13,11,4.80
2012,03,12,13,12,1.60
2012,03,12,13,13,3.20
2012,03,12,13,14,3.20
2012,03,12,13,16,3.20
2012,03,12,13,17,3.20
2012,03,12,13,18,4.80
2012,03,12,13,19,6.40
2012,03,12,13,20,4.80
2012,03,12,13,23,4.80
2012,03,12,13,24,4.80
2012,03,12,13,25,3.20
2012,03,12,13,28,4.80
2012,03,12,13,29,3.20
2012,03,12,13,30,1.60
2012,03,12,13,31,1.60
2012,03,12,13,32,1.60
2012,03,12,13,33,4.80
2012,03,12,13,35,3.20
2012,03,12,13,36,3.20
2012,03,12,13,37,4.80
2012,03,12,13,38,3.20
2012,03,12,13,39,4.80
2012,03,12,13,41,3.20
2012,03,12,13,43,4.80
2012,03,12,13,44,3.20
2012,03,12,13,45,3.20
2012,03,12,13,46,4.80
2012,03,12,13,47,4.80
2012,03,12,13,48,3.20
2012,03,12,13,49,6.40
2012,03,12,13,50,4.80
2012,03,12,13,51,9.60
2012,03,12,13,52,4.80
2012,03,12,13,53,3.20
2012,03,12,13,58,3.20
2012,03,12,13,59,3.20
2012,03,12,14,00,4.80
2012,03,12,14,01,3.20
2012,03,12,14,02,3.20
2012,03,12,14,03,1.60
2012,03,12,14,04,1.60
2012,03,12,14,05,3.20
2012,03,12,14,06,4.80
2012,03,12,14,07,3.20
2012,03,12,14,08,6.40
2012,03,12,14,09,8.10
2012,03,12,14,10,4.80
2012,03,12,14,11,3.20
2012,03,12,14,13,1.60
2012,03,12,14,16,4.80
2012,03,12,14,17,6.40
2012,03,12,14,19,3.20
2012,03,12,14,20,4.80
2012,03,12,14,21,3.20
2012,03,12,14,22,1.60
2012,03,12,14,23,4.80
2012,03,12,14,25,4.80
2012,03,12,14,26,3.20
2012,03,12,14,27,4.80
2012,03,12,14,28,3.20
2012,03,12,14,29,3.20
2012,03,12,14,30,1.60
2012,03,12,14,31,1.60
2012,03,12,14,32,3.20
2012,03,12,14,33,3.20
2012,03,12,14,34,6.40
2012,03,12,14,35,4.80
2012,03,12,14,36,4.80
2012,03,12,14,37,4.80
2012,03,12,14,38,4.80
2012,03,12,14,39,4.80
2012,03,12,14,42,1.60
2012,03,12,14,43,4.80
2012,03,12,14,44,3.20
2012,03,12,14,46,3.20
2012,03,12,14,47,4.80
2012,03,12,14,48,4.80
2012,03,12,14,49,4.80
2012,03,12,14,50,3.20
2012,03,12,14,52,1.60
2012,03,12,14,53,8.10
2012,03,12,14,54,4.80
2012,03,12,14,55,3.20
2012,03,12,14,56,3.20
2012,03,12,14,57,1.60
2012,03,12,15,05,1.60
2012,03,12,15,06,1.60
2012,03,12,15,07,1.60
2012,03,12,15,10,1.60
2012,03,12,15,16,1.60
2012,03,12,15,18,1.60
2012,03,12,15,19,4.80
2012,03,12,15,20,4.80
2012,03,12,15,21,4.80
2012,03,12,15,22,3.20
2012,03,12,15,23,3.20
2012,03,12,15,26,1.60
2012,03,12,15,27,3.20
2012,03,12,15,28,3.20
2012,03,12,15,31,1.60
2012,03,12,15,32,3.20
2012,03,12,15,33,3.20
2012,03,12,15,36,1.60
2012,03,12,15,44,1.60
2012,03,12,15,45,3.20
2012,03,12,15,46,3.20
2012,03,12,15,47,1.60
2012,03,12,15,51,3.20
2012,03,12,15,53,3.20
2012,03,12,15,54,1.60
2012,03,12,15,55,1.60
2012,03,12,15,56,1.60
2012,03,12,15,59,1.60
2012,03,12,16,02,3.20
2012,03,12,16,03,3.20
2012,03,12,16,06,4.80
2012,03,12,16,07,3.20
2012,03,12,16,08,1.60
2012,03,12,16,10,3.20
2012,03,12,16,14,1.60
2012,03,12,16,15,3.20
2012,03,12,16,16,1.60
2012,03,12,16,17,3.20
2012,03,12,16,18,3.20
2012,03,12,16,19,1.60
2012,03,12,16,22,1.60
2012,03,12,16,23,4.80
2012,03,12,16,24,3.20
2012,03,12,16,25,1.60
2012,03,12,16,26,3.20
2012,03,12,16,27,1.60
2012,03,12,16,30,3.20
2012,03,12,16,31,3.20
2012,03,12,16,33,1.60
2012,03,12,16,35,1.60
2012,03,12,16,36,3.20
2012,03,12,16,37,3.20
2012,03,12,16,43,3.20
2012,03,12,16,47,3.20
2012,03,12,16,48,3.20
2012,03,12,16,49,1.60
2012,03,12,16,51,1.60
2012,03,12,16,52,4.80
2012,03,12,16,53,3.20
2012,03,12,16,55,4.80
2012,03,12,16,56,4.80
2012,03,12,16,57,3.20
2012,03,12,16,58,3.20
2012,03,12,16,59,3.20
2012,03,12,17,00,3.20
2012,03,12,17,01,4.80
2012,03,12,17,02,3.20
2012,03,12,17,03,3.20
2012,03,12,17,04,1.60
2012,03,12,17,05,1.60
2012,03,12,17,08,3.20
2012,03,12,17,09,3.20
2012,03,12,17,10,4.80
2012,03,12,17,11,4.80
2012,03,12,17,12,3.20
2012,03,12,17,13,1.60
2012,03,12,17,14,3.20
2012,03,12,17,15,3.20
2012,03,12,17,16,4.80
2012,03,12,17,17,6.40
2012,03,12,17,18,6.40
2012,03,12,17,19,4.80
2012,03,12,17,20,6.40
2012,03,12,17,21,4.80
2012,03,12,17,22,4.80
2012,03,12,17,23,6.40
2012,03,12,17,24,6.40
2012,03,12,17,25,4.80
2012,03,12,17,26,4.80
2012,03,12,17,27,1.60
2012,03,12,17,28,4.80
2012,03,12,17,29,4.80
2012,03,12,17,30,4.80
2012,03,12,17,31,4.80
2012,03,12,17,32,4.80
2012,03,12,17,33,4.80
2012,03,12,17,34,4.80
2012,03,12,17,35,4.80
2012,03,12,17,36,4.80
2012,03,12,17,37,3.20
2012,03,12,17,39,1.60
2012,03,12,17,40,3.20
2012,03,12,17,41,3.20
2012,03,12,17,42,1.60
2012,03,12,17,43,3.20
2012,03,12,17,45,3.20
2012,03,12,17,46,3.20
2012,03,12,17,47,3.20
2012,03,12,17,48,3.20
2012,03,12,17,49,3.20
2012,03,12,17,50,3.20
2012,03,12,17,51,6.40
2012,03,12,17,52,6.40
2012,03,12,17,53,4.80
2012,03,12,17,54,3.20
2012,03,12,17,55,1.60
2012,03,12,17,56,3.20
2012,03,12,17,57,4.80
2012,03,12,17,58,6.40
2012,03,12,17,59,4.80
2012,03,12,18,00,3.20
2012,03,12,18,01,4.80
2012,03,12,18,02,4.80
2012,03,12,18,03,6.40
2012,03,12,18,04,8.10
2012,03,12,18,05,6.40
2012,03,12,18,06,6.40
2012,03,12,18,07,4.80
2012,03,12,18,08,3.20
2012,03,12,18,09,3.20
2012,03,12,18,10,4.80
2012,03,12,18,11,6.40
2012,03,12,18,12,4.80
2012,03,12,18,13,3.20
2012,03,12,18,14,1.60
2012,03,12,18,17,3.20
2012,03,12,18,18,1.60
2012,03,12,18,19,1.60
2012,03,12,18,20,1.60
2012,03,12,18,21,1.60
2012,03,12,18,22,3.20
2012,03,12,18,23,3.20
2012,03,12,18,24,3.20
2012,03,12,18,25,3.20
2012,03,12,18,26,3.20
2012,03,12,18,27,1.60
2012,03,12,18,28,3.20
2012,03,12,18,29,3.20
2012,03,12,18,30,1.60
2012,03,12,18,31,3.20
2012,03,12,18,34,1.60
2012,03,12,18,35,4.80
2012,03,12,18,36,3.20
2012,03,12,18,38,3.20
2012,03,12,18,39,4.80
2012,03,12,18,41,4.80
2012,03,12,18,42,4.80
2012,03,12,18,43,4.80
2012,03,12,18,44,3.20
2012,03,12,18,46,4.80
2012,03,12,18,47,3.20
2012,03,12,18,48,1.60
2012,03,12,18,52,3.20
2012,03,12,18,56,1.60
2012,03,12,18,57,3.20
2012,03,12,18,59,1.60
2012,03,12,19,00,3.20
2012,03,12,19,01,3.20
2012,03,12,19,02,6.40
2012,03,12,19,06,1.60
2012,03,12,19,09,8.10
2012,03,12,19,10,12.90
2012,03,12,19,11,9.60
2012,03,12,19,12,6.40
2012,03,12,19,13,11.30